NWA629 KMKE-KJFK

Flight info

Callsign NWA629
Flight time N/A
Altitude 41000
Route UECKR6 SAMPL ADIME EVOTE DAFLU J70 JHW Q476 WLKES PUCKY1
Aircraft A343/H-SDE2E3FGHIJ4J5M1RWXY/LB1D1

Departure

Time 2026-05-05 03:05
Airport General Mitchell International Airport (KMKE)

Arrival

Time N/A
Airport John F. Kennedy International Airport (KJFK)
Time Latitude Longitude Altitude Speed Heading
2026-05-05 02:07 42.94639 -87.90117 685 ft 0 kts 269°
2026-05-05 02:53 42.94640 -87.90094 689 ft 4 kts 259°
2026-05-05 02:53 42.94649 -87.90062 683 ft 4 kts 225°
2026-05-05 02:53 42.94670 -87.90046 683 ft 4 kts 177°
2026-05-05 02:54 42.94688 -87.90051 688 ft 0 kts 151°
2026-05-05 02:57 42.94687 -87.90051 687 ft 1 kts 151°
2026-05-05 02:58 42.94674 -87.90040 683 ft 4 kts 148°
2026-05-05 02:58 42.94648 -87.90015 674 ft 6 kts 144°
2026-05-05 02:58 42.94616 -87.89987 693 ft 6 kts 148°
2026-05-05 02:58 42.94571 -87.89963 688 ft 8 kts 167°
2026-05-05 02:59 42.94508 -87.89964 688 ft 10 kts 182°
2026-05-05 02:59 42.94434 -87.89954 688 ft 12 kts 169°
2026-05-05 02:59 42.94339 -87.89931 688 ft 16 kts 169°
2026-05-05 02:59 42.94223 -87.89907 688 ft 18 kts 170°
2026-05-05 03:00 42.94098 -87.89881 688 ft 19 kts 178°
2026-05-05 03:00 42.93963 -87.89889 688 ft 20 kts 182°
2026-05-05 03:00 42.93821 -87.89892 688 ft 21 kts 179°
2026-05-05 03:00 42.93674 -87.89892 688 ft 22 kts 180°
2026-05-05 03:01 42.93604 -87.89892 688 ft 4 kts 180°
2026-05-05 03:01 42.93551 -87.89892 686 ft 11 kts 180°
2026-05-05 03:01 42.93452 -87.89897 685 ft 17 kts 182°
2026-05-05 03:01 42.93313 -87.89914 688 ft 22 kts 186°
2026-05-05 03:02 42.93188 -87.89933 688 ft 12 kts 186°
2026-05-05 03:02 42.93100 -87.89934 688 ft 13 kts 159°
2026-05-05 03:02 42.93084 -87.89917 690 ft 0 kts 137°
2026-05-05 03:03 42.93083 -87.89916 690 ft 0 kts 134°
2026-05-05 03:03 42.93083 -87.89909 688 ft 1 kts 110°
2026-05-05 03:03 42.93076 -87.89880 684 ft 6 kts 106°
2026-05-05 03:04 42.93071 -87.89792 688 ft 10 kts 76°
2026-05-05 03:04 42.93136 -87.89749 688 ft 0 kts
2026-05-05 03:04 42.93153 -87.89747 688 ft 17 kts
2026-05-05 03:04 42.93518 -87.89683 688 ft 88 kts
2026-05-05 03:05 42.94328 -87.89548 684 ft 144 kts
2026-05-05 03:05 42.95447 -87.89287 934 ft 173 kts
2026-05-05 03:05 42.96581 -87.88651 1514 ft 187 kts 38°
2026-05-05 03:05 42.97233 -87.87047 2153 ft 210 kts 70°
2026-05-05 03:06 42.97164 -87.84983 2748 ft 228 kts 106°
2026-05-05 03:06 42.96258 -87.83219 3437 ft 230 kts 143°
2026-05-05 03:06 42.94783 -87.82286 4010 ft 246 kts 170°
2026-05-05 03:06 42.93031 -87.81810 4590 ft 267 kts 173°
2026-05-05 03:07 42.91224 -87.80975 4937 ft 279 kts 159°
2026-05-05 03:07 42.89495 -87.79753 5327 ft 280 kts 155°
2026-05-05 03:07 42.87795 -87.78463 6152 ft 280 kts 156°
2026-05-05 03:07 42.86092 -87.77159 7218 ft 282 kts 156°
2026-05-05 03:08 42.84369 -87.75840 8206 ft 287 kts 158°
2026-05-05 03:08 42.82616 -87.74497 9157 ft 292 kts 159°
2026-05-05 03:08 42.81413 -87.73577 9779 ft 295 kts 159°
2026-05-05 03:08 42.79596 -87.72186 10516 ft 306 kts 159°
2026-05-05 03:09 42.77694 -87.70742 10878 ft 328 kts 158°
2026-05-05 03:09 42.75602 -87.69150 11208 ft 351 kts 158°
2026-05-05 03:09 42.73451 -87.67504 11600 ft 367 kts 157°
2026-05-05 03:09 42.71165 -87.65763 12269 ft 375 kts 159°
2026-05-05 03:10 42.68783 -87.64501 12987 ft 369 kts 175°
2026-05-05 03:10 42.66254 -87.64093 13728 ft 366 kts 184°
2026-05-05 03:10 42.63698 -87.63907 14455 ft 370 kts 185°
2026-05-05 03:10 42.61111 -87.63734 15211 ft 374 kts 185°
2026-05-05 03:11 42.58503 -87.63554 15931 ft 378 kts 185°
2026-05-05 03:11 42.55864 -87.63368 16673 ft 382 kts 184°
2026-05-05 03:11 42.53197 -87.63175 17440 ft 385 kts 184°
2026-05-05 03:11 42.50514 -87.62975 18170 ft 388 kts 184°
2026-05-05 03:12 42.47805 -87.62755 18815 ft 392 kts 184°
2026-05-05 03:12 42.45070 -87.62532 19419 ft 396 kts 184°
2026-05-05 03:12 42.42320 -87.62490 20026 ft 394 kts 192°
2026-05-05 03:12 42.39605 -87.62947 20653 ft 393 kts 195°
2026-05-05 03:13 42.36893 -87.63529 21246 ft 397 kts 195°
2026-05-05 03:13 42.34127 -87.63998 21808 ft 406 kts 190°
2026-05-05 03:13 42.31265 -87.63892 22406 ft 419 kts 179°
2026-05-05 03:13 42.28380 -87.63007 22989 ft 432 kts 168°
2026-05-05 03:14 42.25547 -87.61544 23504 ft 439 kts 164°
2026-05-05 03:14 42.22717 -87.59954 23953 ft 443 kts 164°
2026-05-05 03:14 42.19857 -87.58349 24431 ft 445 kts 164°
2026-05-05 03:14 42.16988 -87.56751 24897 ft 448 kts 164°
2026-05-05 03:15 42.14102 -87.55153 25391 ft 450 kts 163°
2026-05-05 03:15 42.11240 -87.53573 25839 ft 452 kts 163°
2026-05-05 03:15 42.08326 -87.51937 26261 ft 457 kts 161°
2026-05-05 03:15 42.05498 -87.49890 26679 ft 466 kts 152°
2026-05-05 03:16 42.02912 -87.47182 27099 ft 477 kts 141°
2026-05-05 03:16 42.00657 -87.43780 27517 ft 487 kts 130°
2026-05-05 03:16 41.98910 -87.39909 27917 ft 495 kts 119°
2026-05-05 03:16 41.97682 -87.35552 28306 ft 503 kts 107°
2026-05-05 03:17 41.97071 -87.30912 28691 ft 508 kts 96°
2026-05-05 03:17 41.97114 -87.26142 29056 ft 513 kts 84°
2026-05-05 03:17 41.97439 -87.21368 29429 ft 515 kts 88°
2026-05-05 03:17 41.97528 -87.16553 29779 ft 516 kts 91°
2026-05-05 03:18 41.97508 -87.11723 30082 ft 519 kts 92°
2026-05-05 03:18 41.97429 -87.06862 30374 ft 521 kts 92°
2026-05-05 03:18 41.97326 -87.01986 30672 ft 523 kts 93°
2026-05-05 03:18 41.97218 -86.97100 31072 ft 522 kts 92°
2026-05-05 03:19 41.97019 -86.87382 31934 ft 519 kts 93°
2026-05-05 03:19 41.96925 -86.82541 32338 ft 518 kts 92°
2026-05-05 03:19 41.96834 -86.77706 32714 ft 517 kts 92°
2026-05-05 03:20 41.96742 -86.72875 33093 ft 517 kts 92°
2026-05-05 03:20 41.96649 -86.68052 33456 ft 516 kts 92°
2026-05-05 03:20 41.96555 -86.63242 33798 ft 515 kts 92°
2026-05-05 03:20 41.96458 -86.58431 34093 ft 515 kts 92°
2026-05-05 03:21 41.96358 -86.53620 34368 ft 515 kts 93°
2026-05-05 03:21 41.96257 -86.48804 34658 ft 515 kts 93°
2026-05-05 03:21 41.96154 -86.44008 34945 ft 515 kts 93°
2026-05-05 03:21 41.96048 -86.39202 35226 ft 515 kts 93°
2026-05-05 03:22 41.95940 -86.34385 35502 ft 515 kts 93°
2026-05-05 03:22 41.95831 -86.29588 35771 ft 515 kts 93°
2026-05-05 03:22 41.95719 -86.24783 36035 ft 515 kts 93°
2026-05-05 03:22 41.95606 -86.19965 36305 ft 515 kts 93°
2026-05-05 03:23 41.95543 -86.15223 36551 ft 515 kts 91°
2026-05-05 03:23 41.95535 -86.10407 36790 ft 516 kts 91°
2026-05-05 03:23 41.95548 -86.05590 37056 ft 516 kts 91°
2026-05-05 03:23 41.95561 -86.00710 37292 ft 515 kts 91°
2026-05-05 03:24 41.95565 -85.95896 37578 ft 515 kts 91°
2026-05-05 03:24 41.95560 -85.91088 37845 ft 515 kts 91°
2026-05-05 03:24 41.95546 -85.86270 38090 ft 515 kts 91°
2026-05-05 03:24 41.95526 -85.81464 38348 ft 515 kts 91°
2026-05-05 03:25 41.95503 -85.76654 38545 ft 515 kts 91°
2026-05-05 03:25 41.95476 -85.71830 38653 ft 518 kts 91°
2026-05-05 03:25 41.95418 -85.62167 38659 ft 516 kts 91°
2026-05-05 03:26 41.95354 -85.52603 38649 ft 515 kts 91°
2026-05-05 03:26 41.95282 -85.42979 38643 ft 515 kts 91°
2026-05-05 03:27 41.95202 -85.33352 38676 ft 515 kts 91°
2026-05-05 03:27 41.95289 -85.23730 38678 ft 516 kts 83°
2026-05-05 03:28 41.96648 -85.14287 38680 ft 515 kts 76°
2026-05-05 03:28 41.98326 -85.04914 38683 ft 516 kts 75°
2026-05-05 03:29 42.00042 -84.95567 38683 ft 515 kts 75°
2026-05-05 03:29 42.01733 -84.86204 38670 ft 515 kts 76°
2026-05-05 03:30 42.03401 -84.76839 38700 ft 515 kts 76°
2026-05-05 03:30 42.05056 -84.67471 38708 ft 515 kts 76°
2026-05-05 03:31 42.06704 -84.58095 38706 ft 514 kts 76°
2026-05-05 03:31 42.08343 -84.48724 38695 ft 515 kts 76°
2026-05-05 03:32 42.09979 -84.39329 38675 ft 515 kts 76°
2026-05-05 03:32 42.11605 -84.29938 38663 ft 515 kts 76°
2026-05-05 03:33 42.13225 -84.20534 38661 ft 514 kts 76°
2026-05-05 03:33 42.14833 -84.11151 38660 ft 514 kts 76°
2026-05-05 03:34 42.16434 -84.01762 38646 ft 514 kts 76°
2026-05-05 03:34 42.18026 -83.92374 38642 ft 514 kts 76°
2026-05-05 03:35 42.19609 -83.82985 38648 ft 513 kts 76°
2026-05-05 03:35 42.21182 -83.73608 38656 ft 513 kts 76°
2026-05-05 03:36 42.22749 -83.64221 38658 ft 513 kts 76°
2026-05-05 03:36 42.24309 -83.54823 38665 ft 514 kts 77°
2026-05-05 03:37 42.25812 -83.45722 38663 ft 514 kts 77°
2026-05-05 03:37 42.27360 -83.36290 38665 ft 514 kts 77°
2026-05-05 03:38 42.28879 -83.26992 38663 ft 514 kts 77°
2026-05-05 03:38 42.30403 -83.17608 38657 ft 514 kts 77°
2026-05-05 03:39 42.31937 -83.08111 38672 ft 514 kts 77°
2026-05-05 03:39 42.33443 -82.98732 38673 ft 514 kts 77°
2026-05-05 03:40 42.34961 -82.89223 38674 ft 514 kts 77°
2026-05-05 03:40 42.36451 -82.79837 38685 ft 514 kts 77°
2026-05-05 03:41 42.37677 -82.70329 38703 ft 514 kts 87°
2026-05-05 03:41 42.37589 -82.60687 38773 ft 513 kts 93°
2026-05-05 03:42 42.37217 -82.51034 38737 ft 514 kts 95°
2026-05-05 03:42 42.36797 -82.41370 38719 ft 516 kts 95°
2026-05-05 03:43 42.36388 -82.31680 38696 ft 516 kts 94°
2026-05-05 03:43 42.35985 -82.22002 38687 ft 516 kts 94°
2026-05-05 03:44 42.35578 -82.12319 38683 ft 516 kts 94°
2026-05-05 03:44 42.35163 -82.02642 38683 ft 516 kts 94°
2026-05-05 03:45 42.34738 -81.92964 38681 ft 516 kts 94°
2026-05-05 03:45 42.34306 -81.83300 38681 ft 516 kts 94°
2026-05-05 03:46 42.33867 -81.73680 38685 ft 516 kts 95°
2026-05-05 03:46 42.33418 -81.64015 38689 ft 515 kts 94°
2026-05-05 03:47 42.32962 -81.54358 38692 ft 515 kts 94°
2026-05-05 03:47 42.32501 -81.44704 38698 ft 515 kts 95°
2026-05-05 03:48 42.32031 -81.35047 38705 ft 515 kts 95°
2026-05-05 03:48 42.31554 -81.25394 38702 ft 515 kts 95°
2026-05-05 03:49 42.31069 -81.15755 38709 ft 514 kts 95°
2026-05-05 03:49 42.30575 -81.06106 38721 ft 514 kts 95°
2026-05-05 03:50 42.30073 -80.96467 38715 ft 514 kts 95°
2026-05-05 03:50 42.29564 -80.86835 38715 ft 514 kts 95°
2026-05-05 03:51 42.29047 -80.77202 38710 ft 514 kts 95°
2026-05-05 03:51 42.28525 -80.67575 38714 ft 514 kts 95°
2026-05-05 03:52 42.27988 -80.57962 38714 ft 514 kts 95°
2026-05-05 03:52 42.27441 -80.48339 38703 ft 513 kts 95°
2026-05-05 03:53 42.26890 -80.38754 38709 ft 511 kts 95°
2026-05-05 03:53 42.26332 -80.29180 38710 ft 511 kts 95°
2026-05-05 03:54 42.25768 -80.19619 38710 ft 511 kts 95°
2026-05-05 03:54 42.25194 -80.10048 38717 ft 511 kts 95°
2026-05-05 03:55 42.24714 -80.02132 38712 ft 509 kts 95°
2026-05-05 03:55 42.24129 -79.92614 38721 ft 509 kts 95°
2026-05-05 03:56 42.23536 -79.83093 38732 ft 509 kts 96°
2026-05-05 03:56 42.22935 -79.73578 38728 ft 509 kts 96°
2026-05-05 03:57 42.22326 -79.64077 38745 ft 508 kts 96°
2026-05-05 03:57 42.21711 -79.54585 38751 ft 508 kts 96°
2026-05-05 03:58 42.21088 -79.45095 38741 ft 508 kts 96°
2026-05-05 03:58 42.20457 -79.35607 38743 ft 508 kts 96°
2026-05-05 03:59 42.19820 -79.26134 38746 ft 507 kts 96°
2026-05-05 03:59 42.19174 -79.16657 38748 ft 507 kts 96°
2026-05-05 04:00 42.17682 -79.07480 38781 ft 504 kts 109°
2026-05-05 04:00 42.15523 -78.98489 38779 ft 505 kts 111°
2026-05-05 04:01 42.13251 -78.89522 38775 ft 506 kts 111°
2026-05-05 04:01 42.10977 -78.80567 38776 ft 506 kts 111°
2026-05-05 04:02 42.08708 -78.71597 38787 ft 506 kts 111°
2026-05-05 04:02 42.06441 -78.62638 38797 ft 507 kts 111°
2026-05-05 04:03 42.04157 -78.53643 38800 ft 508 kts 111°
2026-05-05 04:03 42.01865 -78.44652 38802 ft 508 kts 111°
2026-05-05 04:04 41.99564 -78.35664 38804 ft 508 kts 111°
2026-05-05 04:04 41.97257 -78.26683 38800 ft 508 kts 111°
2026-05-05 04:05 41.94943 -78.17711 38808 ft 508 kts 111°
2026-05-05 04:05 41.92621 -78.08743 38813 ft 508 kts 111°
2026-05-05 04:06 41.90294 -77.99787 38815 ft 508 kts 111°
2026-05-05 04:06 41.87959 -77.90832 38815 ft 508 kts 111°
2026-05-05 04:07 41.85618 -77.81882 38818 ft 508 kts 111°
2026-05-05 04:07 41.83269 -77.72937 38817 ft 508 kts 111°